COSMOS 2251 DEB, 35701

Orbit data source: Space-Track

COSMOS 2251 DEB, 35701 is space debris in LEO originally from a launch on Wed, 16 Jun 1993 UTC launched from the Plesetsk Missile And Space Complex (PKMTR). The debris from Iridium 33, an American commercial communications satellite, has been tracked extensively since its accidental collision with the defunct Russian satellite Cosmos 2251 in 2009. This event, occurring at high speed in low Earth orbit (LEO), generated thousands of pieces of space debris, significantly increasing the risk of further collisions. The Iridium 33 debris cloud has impacted space traffic management and orbital debris mitigation strategies, making it a subject of ongoing study in space situational awareness.

Loading next visibility...
Identifier
35701, 1993-036APW
Orbit
LEO
Country
Flag of CISCIS
Related business
Manufacturer
Unknown
Mission
Spacecraft
Bus & Motor
Unknown
Mass
Unknown
Launch date (UTC)
1993-06-16 (33 years ago)
Launch vehicle
Unknown
Launch site
Plesetsk Missile And Space Complex (PKMTR)
Object type
Payload
Rocket body
Debris
Shape & HBR
Unknown shape, 0.1 m
Radar Cross Section
Small (<0.1 m²)

Expand to show TLE details & history
Last TLE update: 2 weeks ago

TLE from 2 weeks ago
0 COSMOS 2251 DEB
1 35701U 93036APW 25340.24858361  .00003050  00000-0  21224-2 0  9999
2 35701  74.0028 313.2955 0289721 164.0681 196.9800 13.80843435620697
Epoch: 2025-12-06T05:57Z
TLE epoch observation values (Epoch: 2025-12-06T05:57:57.623Z)
Latitude
-0.0001°
Longitude
148.52633°
Altitude
1,167.338 km
Speed
7.168 km/s
True Right ascension
20h 53m 10s
True Declination
0° 00' 00"
Sunlit
Object was in daylight at epoch
Visualization orbit readout
Latitude
Unknown
Longitude
Unknown
Altitude
Unknown
Speed
Unknown
Apparent Right ascension
Unknown
Apparent Declination
Unknown
Sunlit
N/A
Visualization observer readout
Local Sidereal Time
19:13:16
Azimuth
Unknown
Elevation
Unknown
Doppler factor
Unknown
Orbital elements
Apogee altitude
1,171.142 km
Perigee altitude
746.022 km
Semi-major axis
7,336.719 km
Eccentricity
0.02897
Inclination
74.0028°
RAAN
313.2955°
Arg. of periapsis
164.0681°
True anomaly
196.04299°
Mean anomaly
196.98°
Eccentric anomaly
196.50831°
Mean motion
3.45375 °/min
Orbital period
104.23 mins
BSTAR
0.0021224
Loading maneuver chart data...
Computing Atmospheric mass density...

Documentation

Showing up to 5 results
|